Tracking 19247 objects as of 24-Sep-2018
HD Live streaming from Space Station
objects crossing your sky now

FENGYUN 1C DEB

Track FENGYUN 1C DEB now!
10-day predictions


NORAD ID: 31767
Int'l Code: 1999-025CFS
Perigee: 858.7 km
Apogee: 918.2 km
Inclination: 99.1 °
Period: 102.6 minutes
Semi major axis: 7259 km
RCS: 0.0074 m2 (small)
Launch date: May 10, 1999
Source: People's Republic of China (PRC)
Launch site: Taiyaun Space Center, China (TSC)

Note: This is SATELLITE DEBRIS
aabbcc
Your satellite tracking list
Your tracking list is empty




NASA's NSSDC Master Catalog

Two Line Element Set (TLE):
1 31767U 99025CFS 18265.57343196 -.00000146 +00000-0 -63576-4 0  9993
2 31767 099.1358 288.7317 0041039 210.1906 308.3447 14.03614277578052
Source of the keplerian elements: AFSPC